Le nostre stazioni meteo in Italia

Pubblicità
Il mio iltempo24.it
Paganella, Italia (16022): Temperatura & dewpoint: 20.08.2019 12:00:00 - 26.08.2019 12:00:00 (CEST)Paganella, Italia (16022): velocità del vento: 20.08.2019 12:00:00 - 26.08.2019 12:00:00 (CEST)Paganella, Italia (16022): direzione del vento: 20.08.2019 12:00:00 - 26.08.2019 12:00:00 (CEST)Paganella, Italia (16022): visibility: 20.08.2019 12:00:00 - 26.08.2019 12:00:00 (CEST)Paganella, Italia (16022): ore di luce: 20.08.2019 12:00:00 - 26.08.2019 12:00:00 (CEST)
Data & Tempo tt [°C] td [°C] ff [km/h] ff [kn] dd vv [km] sd [min]
26.08.2019 12:00:00 14,7 10,9 8 4 SSO 35 6
26.08.2019 11:00:00 13,8 9,4 0 0 N 35 0
26.08.2019 10:00:00 13,1 8,8 0 0 N 40 48
26.08.2019 09:00:00 12,1 7,0 0 0 N 40 60
26.08.2019 08:00:00 11,0 7,3 0 0 N 40 12
26.08.2019 07:00:00 10,4 7,1 0 0 N 40 0
26.08.2019 06:00:00 10,6 6,9 0 0 N 40 -
26.08.2019 05:00:00 10,8 6,9 0 0 N 40 -
26.08.2019 04:00:00 10,8 7,1 0 0 N 40 -
26.08.2019 03:00:00 10,9 7,2 0 0 N 40 -
26.08.2019 02:00:00 11,1 7,8 5 3 N 40 -
26.08.2019 01:00:00 11,1 9,0 9 5 N 20 -
26.08.2019 00:00:00 10,8 8,6 15 8 NNO 20 -
25.08.2019 23:00:00 11,0 8,2 13 7 N 20 -
25.08.2019 22:00:00 12,0 8,5 11 6 N 20 -
25.08.2019 21:00:00 12,6 7,7 5 3 N 20 0
25.08.2019 20:00:00 13,4 10,4 0 0 N 20 0
25.08.2019 19:00:00 14,4 9,6 0 0 N 20 12
25.08.2019 18:00:00 14,0 9,4 5 3 SSE 30 12
25.08.2019 17:00:00 14,6 10,4 0 0 N 30 30
25.08.2019 16:00:00 15,0 10,4 9 5 SSE 30 24
25.08.2019 15:00:00 15,0 9,8 8 4 S 30 6
25.08.2019 14:00:00 14,0 10,6 8 4 S 40 0
25.08.2019 13:00:00 14,0 10,4 0 0 N 40 0
25.08.2019 12:00:00 13,8 10,4 0 0 N 40 0
25.08.2019 11:00:00 13,0 9,8 5 3 - 40 30
25.08.2019 10:00:00 11,9 7,6 5 3 N 40 36
25.08.2019 09:00:00 11,0 8,4 0 0 N 40 12
25.08.2019 08:00:00 11,0 10,2 8 4 NNE 30 0
25.08.2019 07:00:00 10,3 7,0 8 4 NNE 25 0
25.08.2019 06:00:00 10,3 8,1 5 3 NNE 20 -
25.08.2019 05:00:00 10,2 7,6 4 2 SSO 15 -
25.08.2019 04:00:00 10,1 9,3 9 5 SSO 15 -
25.08.2019 03:00:00 10,4 9,5 13 7 SSO 0,4 -
25.08.2019 02:00:00 11,0 9,1 13 7 SSO - -
25.08.2019 01:00:00 11,2 9,3 5 3 SSO 30 -
25.08.2019 00:00:00 11,4 10,0 0 0 N 30 -
24.08.2019 23:00:00 11,2 10,9 2 1 N 30 -
24.08.2019 22:00:00 11,4 9,5 5 3 N 30 -
24.08.2019 21:00:00 12,0 9,4 4 2 N 40 0
24.08.2019 20:00:00 12,4 8,3 4 2 N 40 30
24.08.2019 19:00:00 13,2 7,0 5 3 N 40 60
24.08.2019 18:00:00 14,0 9,7 5 3 N 40 42
24.08.2019 17:00:00 14,0 10,4 5 3 SSE 30 0
24.08.2019 16:00:00 14,0 10,2 9 5 SE 30 0
24.08.2019 15:00:00 15,0 10,6 9 5 ESE 20 24
24.08.2019 14:00:00 15,8 11,4 13 7 E 30 60
24.08.2019 13:00:00 15,0 10,2 5 3 ENE 20 60
24.08.2019 12:00:00 14,6 9,6 4 2 E 30 60
24.08.2019 11:00:00 13,8 10,0 5 3 E 30 36
24.08.2019 10:00:00 12,2 9,1 4 2 E 30 0
24.08.2019 09:00:00 11,4 8,1 5 3 E 30 0
24.08.2019 08:00:00 10,6 8,0 4 2 E 30 0
24.08.2019 07:00:00 10,0 7,9 8 4 SSE 30 0
24.08.2019 06:00:00 10,0 8,4 5 3 SSE 25 -
24.08.2019 05:00:00 10,0 8,3 4 2 S 25 -
24.08.2019 04:00:00 10,0 8,4 8 4 S 25 -
24.08.2019 03:00:00 10,0 8,1 5 3 S 25 -
24.08.2019 02:00:00 10,0 7,8 5 3 S 30 -
24.08.2019 01:00:00 10,8 8,0 0 0 N 30 -
24.08.2019 00:00:00 10,8 8,0 5 3 SSE 30 -
23.08.2019 23:00:00 11,0 8,2 11 6 N 30 -
23.08.2019 22:00:00 11,0 8,9 8 4 N 30 -
23.08.2019 21:00:00 11,2 7,3 8 4 N 30 0
23.08.2019 20:00:00 11,8 7,7 0 0 N 50 0
23.08.2019 19:00:00 11,6 8,3 11 6 SSE 40 0
23.08.2019 18:00:00 12,8 10,0 15 8 SSE 30 0
23.08.2019 17:00:00 13,6 10,8 15 8 SSE 30 0
23.08.2019 16:00:00 13,4 9,3 8 4 SSE 40 0
23.08.2019 15:00:00 13,0 9,4 9 5 SE 40 0
23.08.2019 14:00:00 13,0 9,6 11 6 SE 30 0
23.08.2019 13:00:00 12,8 8,7 5 3 SE 20 0
23.08.2019 12:00:00 12,6 8,9 9 5 SE 20 0
23.08.2019 11:00:00 11,6 7,3 4 2 E 50 0
23.08.2019 10:00:00 11,1 5,0 8 4 ONO 50 0
23.08.2019 09:00:00 10,3 4,7 8 4 N 50 0
23.08.2019 08:00:00 10,0 4,8 13 7 NNE 50 0
23.08.2019 07:00:00 9,8 6,3 11 6 N 15 0
23.08.2019 06:00:00 9,8 9,4 8 4 N 0,9 -
23.08.2019 05:00:00 9,9 8,5 8 4 N 0,6 -
23.08.2019 04:00:00 11,1 9,0 8 4 N 20 -
23.08.2019 03:00:00 11,2 9,1 5 3 N 30 -
23.08.2019 02:00:00 11,4 8,6 5 3 N 30 -
23.08.2019 01:00:00 11,4 8,3 4 2 N 30 -
23.08.2019 00:00:00 11,7 8,9 4 2 N 30 -
22.08.2019 23:00:00 12,0 9,4 0 0 N 30 -
22.08.2019 22:00:00 12,4 8,7 4 2 N 30 -
22.08.2019 21:00:00 13,0 5,7 4 2 SE 30 0
22.08.2019 20:00:00 13,4 4,3 5 3 SSE 40 6
22.08.2019 19:00:00 14,8 9,4 0 0 N 50 30
22.08.2019 18:00:00 15,3 10,5 4 2 SSO 50 60
22.08.2019 17:00:00 16,0 9,9 8 4 S 50 60
22.08.2019 16:00:00 15,1 9,9 13 7 SSO 50 42
22.08.2019 15:00:00 15,1 9,2 15 8 SSO 50 30
22.08.2019 14:00:00 15,3 9,2 8 4 S 50 60
22.08.2019 13:00:00 14,6 8,3 9 5 S 50 48
22.08.2019 12:00:00 14,0 8,4 8 4 SSO 60 54
22.08.2019 11:00:00 12,1 7,8 8 4 SSO 60 30
22.08.2019 10:00:00 10,4 5,0 11 6 S 40 30
22.08.2019 09:00:00 10,4 5,0 9 5 SSO 40 0
22.08.2019 08:00:00 10,0 3,3 11 6 SO 30 0
22.08.2019 07:00:00 9,6 3,8 9 5 SSE 30 0
22.08.2019 06:00:00 9,0 5,8 9 5 S 0,8 -
22.08.2019 05:00:00 9,7 8,6 11 6 SSO 0,1 -
22.08.2019 04:00:00 10,9 9,5 9 5 SSO 0,6 -
22.08.2019 03:00:00 10,9 10,0 11 6 SSO 25 -
22.08.2019 02:00:00 11,0 9,9 18 10 SSO 25 -
22.08.2019 01:00:00 11,2 10,3 15 8 SSO 25 -
22.08.2019 00:00:00 11,5 10,1 13 7 SSO 25 -
21.08.2019 23:00:00 11,7 10,1 15 8 S 25 -
21.08.2019 22:00:00 12,0 10,1 15 8 S 25 -
21.08.2019 21:00:00 12,3 9,7 11 6 S 25 0
21.08.2019 20:00:00 13,6 9,8 8 4 S 40 24
21.08.2019 19:00:00 14,6 10,4 9 5 S 40 42
21.08.2019 18:00:00 16,0 10,3 11 6 S 60 60
21.08.2019 17:00:00 16,6 10,5 9 5 S 50 60
21.08.2019 16:00:00 16,4 10,3 9 5 S 50 60
21.08.2019 15:00:00 16,0 10,1 11 6 S 50 42
21.08.2019 14:00:00 15,2 9,1 8 4 S 50 0
21.08.2019 13:00:00 14,6 9,0 5 3 S 50 0
21.08.2019 12:00:00 13,4 8,5 4 2 SE 40 0
21.08.2019 11:00:00 10,8 8,0 9 5 NNE 40 0
21.08.2019 10:00:00 9,8 6,9 13 7 N 50 0
21.08.2019 09:00:00 9,2 6,6 11 6 N 50 0
21.08.2019 08:00:00 10,0 9,1 13 7 N 0,9 0
21.08.2019 07:00:00 10,9 9,2 13 7 N - 0
21.08.2019 06:00:00 11,3 9,9 15 8 SSO 12 -
21.08.2019 05:00:00 11,4 10,5 18 10 SO 0,9 -
21.08.2019 04:00:00 11,6 11,1 21 11 SSO 0,9 -
21.08.2019 03:00:00 11,8 11,3 26 14 SSO - -
21.08.2019 02:00:00 11,0 10,2 26 14 SSO 0,3 -
21.08.2019 01:00:00 10,6 8,2 34 18 SSO 30 -
21.08.2019 00:00:00 11,0 7,7 37 20 SSO 12 -
20.08.2019 23:00:00 11,8 6,5 22 12 SSO 50 -
20.08.2019 22:00:00 12,2 6,9 22 12 SO 50 -
20.08.2019 21:00:00 12,4 6,7 22 12 SO 50 60
20.08.2019 20:00:00 13,0 6,4 22 12 SO 50 6
20.08.2019 19:00:00 13,9 5,0 22 12 SO 50 60
20.08.2019 18:00:00 14,2 9,2 24 13 SO 50 60
20.08.2019 17:00:00 15,0 10,0 26 14 SO 50 60
20.08.2019 16:00:00 15,0 12,1 22 12 SSO 25 54
20.08.2019 15:00:00 15,0 11,6 24 13 SSO 12 36
20.08.2019 14:00:00 14,0 12,4 22 12 SO 0,9 0
20.08.2019 13:00:00 13,0 12,4 21 11 SO 0,6 0
20.08.2019 12:00:00 13,2 12,6 21 11 SSO - 0

tt = Temperatura
td = dewpoint
ff = velocità del vento
dd = direzione del vento
vv = visibility
sd = ore di luce

Stazioni seguenti

WeatherPro
AMSI
MeteoEarth